Richlands, VA

9:38 AM EDT on March 30, 2017 (GMT -0400)
Tazewell County

Weather History for KJFZ - October, 2011

Change the Weather History Date:

Saturday, October 1, 2011

  Actual Average (KBLF) Record (KBLF)
Temperature  
Mean Temperature 38 °F -  
Max Temperature 42 °F 65 °F 78 °F (1981)
Min Temperature 35 °F 49 °F 33 °F (1972)
Degree Days  
Heating Degree Days 26    
Moisture  
Dew Point 39 °F    
Average Humidity 100    
Maximum Humidity 100    
Minimum Humidity 93    
Precipitation  
Precipitation 0.00 in - - ()
Sea Level Pressure  
Sea Level Pressure 29.95 in    
Wind  
Wind Speed 8 mph (NW)    
Max Wind Speed 15 mph    
Max Gust Speed 25 mph    
Visibility 8 miles    
Events      
Averages and records for this station are not official NWS values.
T = Trace of Precipitation, MM = Missing Value Source: NWS Daily Summary

Daily Weather History Graph

Daily Weather History Graph

Search for Another Location

Airport or City:

Trip Planner

Search our weather history database for the weather conditions in past years. The results will help you decide how hot, cold, wet, or windy it might be!

Date:

Astronomy

Oct. 01, 2011 Rise Set
Actual Time 7:22 AM EDT 7:10 PM EDT
Civil Twilight 6:56 AM EDT 7:36 PM EDT
Nautical Twilight 6:26 AM EDT 8:06 PM EDT
Astronomical Twilight 5:55 AM EDT 8:37 PM EDT
Moon 12:19 PM EDT (10/1) 10:15 PM EDT (10/1)
Length of Visible Light 12h 40m
Length of Day
11h 48m
Waxing Crescent, 24% of the Moon is Illuminated
Oct 1
Waxing Crescent
Oct 3
First Quarter
Oct 11
Full
Oct 19
Last Quarter
Oct 26
New

Hourly Weather History & Observations

Time (EDT) Temp. Windchill Dew Point Humidity Pressure Visibility Wind Dir Wind Speed Gust Speed Precip Events Conditions
12:55 AM 42.8 °F 38.0 °F 42.8 °F 100% 29.90 in 8.0 mi NW 8.1 mph - N/A   Partly Cloudy
1:15 AM 42.8 °F 38.6 °F 42.8 °F 100% 29.89 in 9.0 mi NW 6.9 mph - N/A   Partly Cloudy
1:35 AM 42.8 °F 38.6 °F 42.8 °F 100% 29.89 in 10.0 mi Variable 6.9 mph - N/A   Partly Cloudy
1:55 AM 42.8 °F 37.5 °F 42.8 °F 100% 29.88 in 10.0 mi NW 9.2 mph - N/A   Partly Cloudy
2:15 AM 41.0 °F 35.8 °F 41.0 °F 100% 29.89 in 10.0 mi NW 8.1 mph - N/A   Clear
2:35 AM 41.0 °F 36.4 °F 41.0 °F 100% 29.89 in 10.0 mi NNW 6.9 mph - N/A   Unknown
2:55 AM 41.0 °F 38.0 °F 41.0 °F 100% 29.89 in 10.0 mi Variable 4.6 mph - N/A   Mostly Cloudy
3:15 AM 41.0 °F 35.2 °F 41.0 °F 100% 29.88 in 10.0 mi NNW 9.2 mph - N/A   Overcast
3:35 AM 41.0 °F 38.0 °F 41.0 °F 100% 29.88 in 10.0 mi NW 4.6 mph - N/A   Mostly Cloudy
3:55 AM 41.0 °F 37.1 °F 41.0 °F 100% 29.88 in 10.0 mi NW 5.8 mph - N/A   Partly Cloudy
4:15 AM 39.2 °F 34.2 °F 39.2 °F 100% 29.88 in 3.0 mi NNW 6.9 mph - N/A   Partly Cloudy
4:35 AM 39.2 °F 35.9 °F 39.2 °F 100% 29.89 in 10.0 mi NNW 4.6 mph - N/A   Partly Cloudy
4:55 AM 39.2 °F 35.9 °F 39.2 °F 100% 29.89 in 10.0 mi Variable 4.6 mph - N/A   Mostly Cloudy
5:15 AM 39.2 °F 37.0 °F 39.2 °F 100% 29.89 in 10.0 mi WNW 3.5 mph - N/A   Mostly Cloudy
5:35 AM 39.2 °F - 39.2 °F 100% 29.88 in 10.0 mi Calm Calm - N/A   Mostly Cloudy
5:55 AM 39.2 °F 37.0 °F 39.2 °F 100% 29.88 in 10.0 mi WNW 3.5 mph - N/A   Mostly Cloudy
6:15 AM 39.2 °F 35.9 °F 39.2 °F 100% 29.88 in 10.0 mi Variable 4.6 mph - N/A   Partly Cloudy
6:35 AM 39.2 °F 35.0 °F 39.2 °F 100% 29.88 in 10.0 mi Variable 5.8 mph - N/A   Unknown
6:55 AM 39.2 °F 35.0 °F 39.2 °F 100% 29.88 in 10.0 mi WNW 5.8 mph - N/A   Unknown
7:15 AM 39.2 °F 33.6 °F 39.2 °F 100% 29.89 in 10.0 mi WNW 8.1 mph - N/A   Partly Cloudy
7:35 AM 39.2 °F 33.0 °F 39.2 °F 100% 29.89 in 6.0 mi WNW 9.2 mph - N/A   Partly Cloudy
7:55 AM 37.4 °F 30.3 °F 37.4 °F 100% 29.89 in 5.0 mi NW 10.4 mph - N/A   Unknown
8:15 AM 37.4 °F 32.8 °F 37.4 °F 100% 29.90 in 10.0 mi WNW 5.8 mph - N/A   Clear
8:35 AM 37.4 °F 34.9 °F 37.4 °F 100% 29.91 in 10.0 mi NNW 3.5 mph - N/A   Unknown
8:55 AM 35.6 °F 29.2 °F 35.6 °F 100% 29.93 in 9.0 mi NW 8.1 mph - N/A   Clear
9:15 AM 35.6 °F 28.6 °F 35.6 °F 100% 29.94 in 9.0 mi NW 9.2 mph - N/A   Clear
9:35 AM 35.6 °F 26.6 °F 35.6 °F 100% 29.95 in 9.0 mi NW 13.8 mph 25.3 mph N/A   Clear
9:55 AM 37.4 °F 30.8 °F 35.6 °F 93% 29.95 in 9.0 mi NW 9.2 mph - N/A   Clear
10:15 AM 37.4 °F 30.8 °F 37.4 °F 100% 29.95 in 10.0 mi NW 9.2 mph - N/A   Clear
10:35 AM 37.4 °F 28.5 °F 37.4 °F 100% 29.96 in 10.0 mi NW 15.0 mph - N/A   Unknown
10:55 AM 37.4 °F 29.8 °F 37.4 °F 100% 29.97 in 9.0 mi NW 11.5 mph - N/A   Unknown
11:15 AM 37.4 °F 32.8 °F 37.4 °F 100% 29.98 in 5.0 mi NNW 5.8 mph - N/A   Unknown
11:35 AM 37.4 °F 32.1 °F 37.4 °F 100% 29.98 in 5.0 mi NW 6.9 mph - N/A   Clear
12:15 PM 37.4 °F 29.3 °F 37.4 °F 100% 30.00 in 3.0 mi NW 12.7 mph - N/A   Unknown
12:35 PM 39.2 °F 33.6 °F 37.4 °F 93% 30.00 in 10.0 mi NNW 8.1 mph - N/A   Unknown
1:15 PM 39.2 °F 32.5 °F 39.2 °F 100% 30.00 in 8.0 mi NW 10.4 mph - N/A   Unknown
1:35 PM 39.2 °F 33.0 °F 39.2 °F 100% 30.00 in 6.0 mi WNW 9.2 mph - N/A   Clear
2:15 PM 39.2 °F 33.0 °F 39.2 °F 100% 30.00 in 10.0 mi WNW 9.2 mph - N/A   Unknown
2:35 PM 39.2 °F 32.5 °F 39.2 °F 100% 30.00 in 10.0 mi WNW 10.4 mph - N/A   Partly Cloudy
2:55 PM 39.2 °F 32.5 °F 39.2 °F 100% 30.00 in 10.0 mi WNW 10.4 mph - N/A   Partly Cloudy
3:15 PM 39.2 °F 33.0 °F 39.2 °F 100% 30.01 in 10.0 mi WNW 9.2 mph - N/A   Partly Cloudy
3:35 PM 39.2 °F 32.5 °F 39.2 °F 100% 30.01 in 10.0 mi NW 10.4 mph - N/A   Unknown
3:55 PM 39.2 °F 33.0 °F 39.2 °F 100% 30.02 in 6.0 mi NW 9.2 mph - N/A   Unknown
4:15 PM 39.2 °F 33.0 °F 39.2 °F 100% 30.02 in 6.0 mi WNW 9.2 mph - N/A   Clear
4:35 PM 39.2 °F 32.5 °F 39.2 °F 100% 30.02 in 4.0 mi West 10.4 mph - N/A   Clear
4:55 PM 39.2 °F 33.6 °F 39.2 °F 100% 30.03 in 6.0 mi WNW 8.1 mph - N/A   Clear
5:15 PM 39.2 °F 33.6 °F 39.2 °F 100% 30.03 in 5.0 mi West 8.1 mph - N/A   Clear
5:35 PM 39.2 °F 32.0 °F 39.2 °F 100% 30.03 in 8.0 mi WNW 11.5 mph - N/A   Clear
5:55 PM 39.2 °F 33.0 °F 39.2 °F 100% 30.03 in 10.0 mi WNW 9.2 mph - N/A   Clear
6:15 PM 39.2 °F 31.6 °F 39.2 °F 100% 30.04 in 6.0 mi WNW 12.7 mph - N/A   Clear
6:35 PM 39.2 °F 34.2 °F 39.2 °F 100% 30.04 in 6.0 mi Variable 6.9 mph - N/A   Clear
6:55 PM 39.2 °F 33.6 °F 39.2 °F 100% 30.05 in 4.0 mi West 8.1 mph - N/A   Unknown
7:15 PM 39.2 °F 33.6 °F 39.2 °F 100% 30.04 in 6.0 mi West 8.1 mph - N/A   Clear
7:35 PM 39.2 °F 33.0 °F 39.2 °F 100% 30.04 in 2.5 mi WNW 9.2 mph - N/A   Unknown
7:55 PM 39.2 °F 33.6 °F 39.2 °F 100% 30.04 in 1.5 mi West 8.1 mph - N/A   Mostly Cloudy
8:15 PM 39.2 °F 33.0 °F 39.2 °F 100% 30.05 in 1.0 mi WNW 9.2 mph - N/A   Overcast
8:35 PM 39.2 °F 33.6 °F 39.2 °F 100% 30.05 in 1.5 mi WNW 8.1 mph - N/A   Mostly Cloudy
8:55 PM 39.2 °F 32.5 °F 39.2 °F 100% 30.05 in 1.5 mi WNW 10.4 mph - N/A   Mostly Cloudy
9:15 PM 39.2 °F 32.5 °F 39.2 °F 100% 30.05 in 4.0 mi WNW 10.4 mph - N/A   Unknown
9:35 PM 39.2 °F 33.0 °F 39.2 °F 100% 30.05 in 3.0 mi NW 9.2 mph - N/A   Unknown
9:55 PM 39.2 °F 32.5 °F 39.2 °F 100% 30.05 in 4.0 mi NW 10.4 mph - N/A   Unknown
10:15 PM 39.2 °F 33.6 °F 39.2 °F 100% 30.05 in 6.0 mi WNW 8.1 mph - N/A   Partly Cloudy
10:35 PM 39.2 °F 32.0 °F 39.2 °F 100% 30.05 in 6.0 mi NW 11.5 mph - N/A   Partly Cloudy
10:55 PM 39.2 °F 34.2 °F 39.2 °F 100% 30.05 in 5.0 mi WNW 6.9 mph - N/A   Partly Cloudy
11:15 PM 39.2 °F 32.5 °F 39.2 °F 100% 30.05 in 2.5 mi WNW 10.4 mph - N/A   Scattered Clouds
11:35 PM 39.2 °F 33.6 °F 39.2 °F 100% 30.05 in 3.0 mi NW 8.1 mph - N/A   Scattered Clouds
11:55 PM 39.2 °F 32.0 °F 39.2 °F 100% 30.05 in 3.0 mi WNW 11.5 mph - N/A   Partly Cloudy